Location: Jackson Park
(37.2862°N, 79.9123°W)
Time: 22:44:31
(UTC+00:00)

Transit 4A - Pass Details

Date: 14 May 2026
Orbit: 861 x 980 km, 66.8° (Epoch: 5 June)

Event Time Altitude Azimuth Distance (km) Brightness Sun altitude
Rises 13:40:47 0° 220° (SW) 3,522 10.7 39.7°
Reaches altitude 10° 13:43:19 10° 225° (SW) 2,602 10.1 40.2°
Maximum altitude 13:49:14 54° 302° (WNW) 1,131 8.6 41.4°
Drops below altitude 10° 13:55:23 10° 19° (NNE) 2,695 10.5 42.6°
Sets 13:58:03 0° 24° (NNE) 3,658 11.2 43.1°
